CW0318 Weather Reports


time (UTC)temp
F
wind
direction
speed
knots
gust
knots
rain 1hr
in
rain 24hr
in
rain mn
in
humidity
%
barometer
mb
20260510115412 63 11 0.0 1.7 0.00 0.00 0.00 82 1013.0
20260510114411 62 48 0.9 1.7 0.00 0.00 0.00 82 1012.9
20260510113451 63 360 0.0 0.9 0.00 0.00 0.00 82 1012.5
20260510112431 63 360 0.0 1.7 0.00 0.00 0.00 82 1012.3
20260510111411 63 91 0.0 0.9 0.00 0.00 0.00 81 1012.3
20260510110411 63 91 0.0 0.0 0.00 0.00 0.00 80 1012.2
20260510105411 63 91 0.0 0.9 0.00 0.00 0.00 80 1011.8
20260510104410 64 91 0.0 0.9 0.00 0.00 0.00 79 1011.8
20260510103410 64 91 0.0 0.0 0.00 0.00 0.00 78 1012.0
20260510102430 64 91 0.0 1.7 0.00 0.00 0.00 78 1011.7
20260510101410 65 91 0.0 1.7 0.00 0.00 0.00 77 1011.5
20260510100410 65 74 0.0 1.7 0.00 0.00 0.00 77 1011.5
20260510095430 65 69 0.0 2.6 0.00 0.00 0.00 76 1011.5
20260510094410 65 52 0.0 2.6 0.00 0.00 0.00 75 1011.3
20260510093410 65 52 0.0 2.6 0.00 0.00 0.00 75 1011.4
20260510092429 65 99 0.0 0.0 0.00 0.00 0.00 74 1011.4
20260510091409 65 99 0.0 0.0 0.00 0.00 0.00 73 1011.4
20260510090409 66 100 0.0 0.0 0.00 0.00 0.00 73 1011.1
20260510085409 66 38 0.0 2.6 0.00 0.00 0.00 72 1010.4
20260510084409 67 281 0.0 2.6 0.00 0.00 0.00 71 1010.5
20260510083409 67 281 0.0 2.6 0.00 0.00 0.00 70 1010.3
20260510082408 68 360 0.0 4.3 0.00 0.00 0.00 69 1009.6
20260510081408 68 5 0.9 4.3 0.00 0.00 0.00 68 1009.5
20260510080408 68 23 0.0 4.3 0.00 0.00 0.00 67 1009.5
20260510075448 68 259 0.9 8.7 0.00 0.00 0.00 66 1009.1
20260510074408 68 82 0.0 8.7 0.00 0.00 0.00 67 1008.1
20260510073408 69 173 0.9 8.7 0.00 0.00 0.00 67 1007.0
20260510072408 69 184 4.3 10.4 0.00 0.00 0.00 65 1009.3
20260510071408 70 127 1.7 10.4 0.00 0.00 0.00 64 1010.3
20260510070448 70 148 0.0 7.8 0.00 0.00 0.00 61 1010.4
20260510065407 70 306 1.7 8.7 0.00 0.00 0.00 62 1009.6
20260510064407 69 176 2.6 7.0 0.00 0.00 0.00 65 1011.5
20260510063407 69 204 0.0 1.7 0.00 0.00 0.00 67 1011.7
20260510062407 69 269 0.0 1.7 0.00 0.00 0.00 66 1011.8
20260510061407 69 269 0.0 1.7 0.00 0.00 0.00 66 1011.7
20260510060407 69 269 1.7 1.7 0.00 0.00 0.00 66 1011.7
20260510055426 70 224 2.6 3.5 0.00 0.00 0.00 66 1012.0
20260510054406 70 57 0.9 1.7 0.00 0.00 0.00 66 1011.9
20260510053406 70 267 0.0 0.9 0.00 0.00 0.00 64 1012.4
20260510052406 70 265 0.0 2.6 0.00 0.00 0.00 64 1012.3
20260510051426 70 273 0.0 2.6 0.00 0.00 0.00 63 1012.3
20260510050426 70 11 0.0 0.0 0.00 0.00 0.00 63 1012.2
20260510045406 71 11 0.0 1.7 0.00 0.00 0.00 64 1011.7
20260510044426 71 5 0.9 1.7 0.00 0.00 0.00 63 1011.4
20260510043406 71 72 0.0 0.9 0.00 0.00 0.00 61 1011.2
20260510042405 71 72 0.0 1.7 0.00 0.00 0.00 61 1010.7
20260510041505 71 72 0.0 1.7 0.00 0.00 0.00 60 1010.6
20260510040405 71 72 0.0 1.7 0.00 0.00 0.00 59 1010.4
20260510035405 72 72 0.0 0.9 0.00 0.00 0.00 58 1010.4
20260510034405 72 72 0.0 0.9 0.00 0.00 0.00 57 1010.3
20260510033405 72 72 0.0 0.9 0.00 0.00 0.00 58 1010.3
20260510032404 71 72 0.0 0.0 0.00 0.00 0.00 58 1010.5
20260510031404 71 72 0.0 0.0 0.00 0.00 0.00 58 1010.4
20260510030404 71 72 0.0 0.0 0.00 0.00 0.00 58 1010.4
20260510025404 71 72 0.0 0.0 0.00 0.00 0.00 58 1010.3
20260510024424 72 72 0.0 0.0 0.00 0.00 0.00 56 1010.1
20260510023424 72 72 0.0 0.0 0.00 0.00 0.00 54 1009.7
20260510022444 73 72 0.0 0.0 0.00 0.00 0.00 52 1009.1
20260510021404 74 72 0.0 0.0 0.00 0.00 0.00 51 1008.8
20260510020403 74 72 0.0 0.0 0.00 0.00 0.00 49 1008.6
20260510015403 75 72 0.0 1.7 0.00 0.00 0.00 48 1008.3
20260510014423 75 72 0.9 1.7 0.00 0.00 0.00 47 1008.2
20260510013403 76 88 0.9 1.7 0.00 0.00 0.00 47 1008.1
20260510012403 76 88 0.0 1.7 0.00 0.00 0.00 46 1008.0
20260510011403 77 82 0.0 1.7 0.00 0.00 0.00 46 1007.5
20260510010403 77 79 0.9 1.7 0.00 0.00 0.00 45 1007.6
20260510005403 78 76 0.0 3.5 0.00 0.00 0.00 45 1007.7
20260510004402 79 61 1.7 3.5 0.00 0.00 0.00 44 1007.6
20260510003402 79 99 0.0 3.5 0.00 0.00 0.00 42 1007.5
20260510002402 80 61 2.6 4.3 0.00 0.00 0.00 44 1007.4
20260510001402 80 84 1.7 4.3 0.00 0.00 0.00 42 1007.5
20260510000403 81 73 1.7 2.6 0.00 0.00 0.00 41 1007.4
20260509235402 81 140 1.7 6.1 0.00 0.01 0.00 41 1007.5
20260509234402 81 80 1.7 6.1 0.00 0.01 0.00 38 1007.7
20260509233502 82 69 2.6 2.6 0.00 0.01 0.00 36 1007.5
20260509232401 82 57 2.6 7.0 0.00 0.01 0.00 35 1007.6
20260509231421 82 72 0.9 7.0 0.00 0.01 0.00 35 1007.8
20260509230401 82 88 0.9 3.5 0.00 0.01 0.00 35 1007.9
20260509225401 82 93 1.7 7.8 0.00 0.01 0.00 34 1007.9
20260509224401 82 45 2.6 7.8 0.00 0.01 0.00 33 1007.9
20260509223401 82 63 2.6 5.2 0.00 0.01 0.00 31 1008.0
20260509222401 82 113 1.7 7.0 0.00 0.01 0.00 36 1008.0
20260509221400 82 55 4.3 6.1 0.00 0.01 0.00 37 1007.9
20260509220400 83 61 2.6 6.1 0.00 0.01 0.00 34 1008.1
20260509215400 83 192 2.6 6.1 0.00 0.01 0.00 37 1008.2
20260509214400 83 84 0.0 4.3 0.00 0.01 0.00 34 1008.0
20260509213400 83 128 1.7 3.5 0.00 0.01 0.00 32 1008.2
20260509212400 83 83 3.5 7.8 0.00 0.01 0.00 32 1008.3
20260509211400 83 99 0.9 7.8 0.00 0.01 0.00 37 1008.6
20260509210419 83 58 2.6 5.2 0.00 0.01 0.00 38 1008.7
20260509205359 83 53 1.7 6.1 0.00 0.01 0.00 37 1008.9
20260509204359 83 63 2.6 6.1 0.00 0.01 0.00 31 1008.9
20260509203359 83 131 1.7 2.6 0.00 0.01 0.00 34 1009.0
20260509202359 83 59 3.5 7.0 0.00 0.01 0.00 34 1009.0
20260509201359 83 84 0.0 7.0 0.00 0.01 0.00 35 1009.1
20260509200419 83 25 2.6 4.3 0.00 0.01 0.00 34 1009.2
20260509195359 83 108 0.0 3.5 0.00 0.01 0.00 33 1009.2
20260509194358 83 227 1.7 3.5 0.00 0.01 0.00 31 1009.4
20260509193358 83 122 0.0 2.6 0.00 0.01 0.00 32 1009.5
20260509192418 82 82 0.9 4.3 0.00 0.01 0.00 34 1009.5
20260509191358 83 78 0.9 3.5 0.00 0.01 0.00 35 1009.5
20260509190358 82 101 2.6 2.6 0.00 0.01 0.00 35 1009.4
20260509185358 82 78 1.7 3.5 0.00 0.01 0.00 40 1009.4
20260509184358 82 134 0.0 3.5 0.00 0.01 0.00 45 1009.6
20260509183417 82 191 0.0 3.5 0.00 0.01 0.00 45 1009.6
20260509182437 82 190 0.0 3.5 0.00 0.01 0.00 42 1009.9
20260509181417 81 145 0.9 2.6 0.00 0.01 0.00 45 1009.9
20260509180417 81 52 2.6 2.6 0.00 0.01 0.00 47 1010.0
20260509175357 81 223 0.0 2.6 0.00 0.01 0.00 47 1010.2
20260509174357 81 59 0.9 2.6 0.00 0.01 0.00 46 1010.3
20260509173357 81 100 0.0 2.6 0.00 0.01 0.00 54 1010.4
20260509172357 80 159 3.5 3.5 0.00 0.01 0.00 59 1010.5
20260509171356 79 150 2.6 2.6 0.00 0.01 0.00 55 1010.5
20260509170356 80 154 0.9 2.6 0.00 0.01 0.00 53 1010.6
20260509165356 79 121 0.0 3.5 0.00 0.01 0.00 62 1010.4
20260509164356 79 146 0.9 3.5 0.00 0.01 0.00 59 1010.8
20260509163356 78 96 0.0 0.9 0.00 0.01 0.00 60 1010.8
20260509162356 77 161 0.0 2.6 0.00 0.01 0.00 64 1010.7
20260509161416 77 158 0.0 2.6 0.00 0.01 0.00 68 1010.6
20260509160356 76 71 0.0 2.6 0.00 0.01 0.00 68 1010.7
20260509155355 75 232 0.0 2.6 0.00 0.01 0.00 71 1010.6
20260509154355 75 172 0.0 1.7 0.00 0.01 0.00 74 1010.4
20260509153355 74 172 0.0 0.9 0.00 0.01 0.00 73 1010.4
20260509152355 73 74 0.9 1.7 0.00 0.01 0.00 72 1010.6
20260509151415 73 153 0.9 1.7 0.00 0.01 0.00 75 1010.6
20260509150415 72 159 0.0 1.7 0.00 0.01 0.00 76 1010.6
20260509145355 72 172 0.0 2.6 0.00 0.01 0.00 79 1010.6
20260509144354 71 167 0.0 2.6 0.00 0.01 0.00 79 1010.7
20260509143414 70 154 0.0 2.6 0.00 0.01 0.00 79 1010.7
20260509142354 69 150 0.0 1.7 0.00 0.01 0.00 83 1010.5
20260509141354 68 244 0.0 0.9 0.00 0.01 0.00 86 1010.7
20260509140354 66 132 0.0 0.9 0.00 0.01 0.00 91 1010.5
20260509135354 65 178 0.0 0.0 0.00 0.01 0.00 93 1010.5
20260509134354 63 178 0.0 0.0 0.00 0.01 0.00 93 1010.4
20260509133353 64 178 0.0 0.0 0.00 0.01 0.00 95 1010.0
20260509132413 63 178 0.0 0.0 0.00 0.01 0.00 96 1009.8
20260509131354 63 178 0.0 0.0 0.00 0.01 0.00 97 1009.9
20260509130353 62 178 0.0 0.0 0.00 0.01 0.00 97 1009.9
20260509125353 61 178 0.0 0.0 0.00 0.01 0.00 97 1009.9
20260509124353 60 178 0.0 0.0 0.00 0.01 0.00 97 1009.6
20260509123433 59 178 0.0 0.0 0.00 0.01 0.00 97 1009.6
20260509122353 57 178 0.0 0.0 0.00 0.01 0.00 96 1009.6
20260509121352 57 178 0.0 0.0 0.00 0.01 0.00 96 1009.4
20260509120352 56 178 0.0 0.0 0.00 0.01 0.00 96 1009.3